contact:dominique.lefevre@mio.osupytheas.fr, maurice.libes@osupytheas.fr, didier.mallarino@osupytheas.fr
Project:EMSO http://www.emso-fr.org/EMSO-France
Depth: 2436.0 m
Title:EMSO Ligure Ouest : Data MII capteur OXYGEN
DateTime,Latitude,Longitude,Optode-Type,Optode_Serial,Oxygen,Saturation_Oxygen,Temperature
DateTime,Latitude,Longitude,Optode-Type,Optode_Serial,µmol.l-1,%,degC
2017-11-27T00:00:57,42.805,6.029,4330,1995,196.661,60.138,13.286
2017-11-27T00:03:57,42.805,6.029,4330,1995,196.620,60.126,13.286
2017-11-27T00:06:57,42.805,6.029,4330,1995,196.623,60.127,13.286
2017-11-27T00:09:57,42.805,6.029,4330,1995,196.644,60.133,13.286
2017-11-27T00:12:57,42.805,6.029,4330,1995,196.675,60.142,13.285
2017-11-27T00:15:57,42.805,6.029,4330,1995,196.684,60.145,13.286
2017-11-27T00:18:57,42.805,6.029,4330,1995,196.656,60.137,13.286
2017-11-27T00:21:57,42.805,6.029,4330,1995,196.627,60.128,13.285
2017-11-27T00:24:57,42.805,6.029,4330,1995,196.672,60.142,13.285
2017-11-27T00:27:57,42.805,6.029,4330,1995,196.675,60.143,13.286
2017-11-27T00:30:57,42.805,6.029,4330,1995,196.583,60.115,13.286
2017-11-27T00:33:57,42.805,6.029,4330,1995,196.610,60.123,13.285
2017-11-27T00:36:57,42.805,6.029,4330,1995,196.675,60.143,13.286
2017-11-27T00:39:57,42.805,6.029,4330,1995,196.630,60.129,13.285
2017-11-27T00:42:57,42.805,6.029,4330,1995,196.666,60.140,13.285
2017-11-27T00:45:57,42.805,6.029,4330,1995,196.666,60.140,13.285
2017-11-27T00:48:57,42.805,6.029,4330,1995,196.694,60.148,13.285
2017-11-27T00:51:57,42.805,6.029,4330,1995,196.688,60.146,13.285
2017-11-27T00:54:57,42.805,6.029,4330,1995,196.692,60.148,13.285
2017-11-27T00:57:57,42.805,6.029,4330,1995,196.652,60.135,13.285
2017-11-27T01:00:57,42.805,6.029,4330,1995,196.716,60.155,13.285
2017-11-27T01:03:57,42.805,6.029,4330,1995,196.677,60.143,13.285
2017-11-27T01:06:57,42.805,6.029,4330,1995,196.708,60.153,13.285
2017-11-27T01:09:57,42.805,6.029,4330,1995,196.797,60.180,13.285
2017-11-27T01:12:57,42.805,6.029,4330,1995,196.777,60.174,13.285
2017-11-27T01:15:57,42.805,6.029,4330,1995,196.808,60.183,13.285
2017-11-27T01:18:57,42.805,6.029,4330,1995,196.830,60.190,13.285
2017-11-27T01:21:57,42.805,6.029,4330,1995,196.850,60.196,13.285
2017-11-27T01:24:57,42.805,6.029,4330,1995,196.848,60.195,13.285
2017-11-27T01:27:57,42.805,6.029,4330,1995,196.906,60.213,13.285
2017-11-27T01:30:57,42.805,6.029,4330,1995,196.934,60.222,13.285
2017-11-27T01:33:57,42.805,6.029,4330,1995,196.942,60.224,13.285
2017-11-27T01:36:57,42.805,6.029,4330,1995,196.960,60.230,13.286
2017-11-27T01:39:57,42.805,6.029,4330,1995,196.878,60.204,13.285
2017-11-27T01:42:57,42.805,6.029,4330,1995,196.961,60.230,13.285
2017-11-27T01:45:57,42.805,6.029,4330,1995,196.975,60.234,13.286
2017-11-27T01:48:57,42.805,6.029,4330,1995,197.226,60.311,13.285
2017-11-27T01:51:57,42.805,6.029,4330,1995,197.332,60.343,13.285
2017-11-27T01:54:57,42.805,6.029,4330,1995,197.236,60.314,13.285
2017-11-27T01:57:57,42.805,6.029,4330,1995,197.297,60.333,13.285
2017-11-27T02:00:57,42.805,6.029,4330,1995,197.415,60.369,13.285
2017-11-27T02:03:57,42.805,6.029,4330,1995,197.443,60.377,13.285
2017-11-27T02:06:56,42.805,6.029,4330,1995,197.378,60.358,13.285
2017-11-27T02:09:56,42.805,6.029,4330,1995,197.324,60.341,13.286
2017-11-27T02:12:56,42.805,6.029,4330,1995,197.335,60.344,13.285
2017-11-27T02:15:56,42.805,6.029,4330,1995,197.432,60.374,13.285
2017-11-27T02:18:56,42.805,6.029,4330,1995,197.309,60.336,13.285
2017-11-27T02:21:56,42.805,6.029,4330,1995,197.415,60.369,13.285
2017-11-27T02:24:56,42.805,6.029,4330,1995,197.522,60.402,13.285
2017-11-27T02:27:56,42.805,6.029,4330,1995,197.477,60.388,13.285
2017-11-27T02:30:56,42.805,6.029,4330,1995,197.390,60.361,13.285
2017-11-27T02:33:56,42.805,6.029,4330,1995,197.473,60.386,13.285
2017-11-27T02:36:56,42.805,6.029,4330,1995,197.516,60.400,13.285
2017-11-27T02:39:56,42.805,6.029,4330,1995,197.536,60.406,13.285
2017-11-27T02:42:56,42.805,6.029,4330,1995,197.577,60.419,13.286
2017-11-27T02:45:56,42.805,6.029,4330,1995,197.584,60.421,13.286
2017-11-27T02:48:56,42.805,6.029,4330,1995,197.517,60.400,13.286
2017-11-27T02:51:56,42.805,6.029,4330,1995,197.560,60.413,13.286
2017-11-27T02:54:56,42.805,6.029,4330,1995,197.480,60.389,13.286
2017-11-27T02:57:56,42.805,6.029,4330,1995,197.474,60.387,13.286
2017-11-27T03:00:56,42.805,6.029,4330,1995,197.348,60.349,13.286
2017-11-27T03:03:56,42.805,6.029,4330,1995,197.315,60.339,13.286
2017-11-27T03:06:56,42.805,6.029,4330,1995,197.365,60.354,13.286
2017-11-27T03:09:56,42.805,6.029,4330,1995,197.400,60.364,13.286
2017-11-27T03:12:56,42.805,6.029,4330,1995,197.385,60.360,13.286
2017-11-27T03:15:56,42.805,6.029,4330,1995,197.363,60.353,13.286
2017-11-27T03:18:56,42.805,6.029,4330,1995,197.323,60.341,13.286
2017-11-27T03:21:56,42.805,6.029,4330,1995,197.411,60.368,13.285
2017-11-27T03:24:56,42.805,6.029,4330,1995,197.370,60.355,13.285
2017-11-27T03:27:56,42.805,6.029,4330,1995,197.420,60.370,13.285
2017-11-27T03:30:56,42.805,6.029,4330,1995,197.441,60.377,13.286
2017-11-27T03:33:56,42.805,6.029,4330,1995,197.463,60.383,13.286
2017-11-27T03:36:56,42.805,6.029,4330,1995,197.458,60.382,13.285
2017-11-27T03:39:56,42.805,6.029,4330,1995,197.507,60.397,13.286
2017-11-27T03:42:56,42.805,6.029,4330,1995,197.500,60.395,13.286
2017-11-27T03:45:56,42.805,6.029,4330,1995,197.541,60.408,13.286
2017-11-27T03:48:56,42.805,6.029,4330,1995,197.542,60.408,13.286
2017-11-27T03:51:56,42.805,6.029,4330,1995,197.581,60.420,13.286
2017-11-27T03:54:56,42.805,6.029,4330,1995,197.559,60.413,13.286
2017-11-27T03:57:56,42.805,6.029,4330,1995,197.552,60.411,13.286
2017-11-27T04:00:56,42.805,6.029,4330,1995,197.537,60.407,13.286
2017-11-27T04:03:56,42.805,6.029,4330,1995,197.510,60.400,13.287
2017-11-27T04:06:56,42.805,6.029,4330,1995,197.468,60.386,13.286
2017-11-27T04:09:56,42.805,6.029,4330,1995,197.473,60.387,13.286
2017-11-27T04:12:56,42.805,6.029,4330,1995,197.444,60.379,13.286
2017-11-27T04:15:56,42.805,6.029,4330,1995,197.506,60.397,13.286
2017-11-27T04:18:56,42.805,6.029,4330,1995,197.518,60.401,13.286
2017-11-27T04:21:56,42.805,6.029,4330,1995,197.464,60.385,13.286
2017-11-27T04:24:56,42.805,6.029,4330,1995,197.443,60.378,13.286
2017-11-27T04:27:56,42.805,6.029,4330,1995,197.429,60.374,13.286
2017-11-27T04:30:56,42.805,6.029,4330,1995,197.318,60.340,13.286
2017-11-27T04:33:56,42.805,6.029,4330,1995,197.407,60.367,13.286
2017-11-27T04:36:56,42.805,6.029,4330,1995,197.298,60.334,13.287
2017-11-27T04:39:56,42.805,6.029,4330,1995,197.182,60.298,13.286
2017-11-27T04:42:56,42.805,6.029,4330,1995,197.280,60.328,13.286
2017-11-27T04:45:56,42.805,6.029,4330,1995,197.329,60.344,13.286
2017-11-27T04:48:56,42.805,6.029,4330,1995,197.239,60.316,13.286
2017-11-27T04:51:56,42.805,6.029,4330,1995,197.321,60.341,13.286
2017-11-27T04:54:56,42.805,6.029,4330,1995,197.320,60.341,13.286
2017-11-27T04:57:56,42.805,6.029,4330,1995,197.266,60.324,13.286
2017-11-27T05:00:56,42.805,6.029,4330,1995,197.265,60.324,13.286
2017-11-27T05:03:56,42.805,6.029,4330,1995,197.202,60.305,13.286
2017-11-27T05:06:56,42.805,6.029,4330,1995,197.183,60.299,13.286
2017-11-27T05:09:56,42.805,6.029,4330,1995,197.137,60.285,13.286
2017-11-27T05:12:56,42.805,6.029,4330,1995,197.155,60.291,13.286
2017-11-27T05:15:56,42.805,6.029,4330,1995,197.095,60.272,13.286
2017-11-27T05:18:56,42.805,6.029,4330,1995,197.071,60.265,13.286
2017-11-27T05:21:56,42.805,6.029,4330,1995,197.051,60.260,13.287
2017-11-27T05:24:56,42.805,6.029,4330,1995,196.996,60.242,13.286
2017-11-27T05:27:56,42.805,6.029,4330,1995,196.948,60.227,13.286
2017-11-27T05:30:56,42.805,6.029,4330,1995,196.980,60.237,13.286
2017-11-27T05:33:56,42.805,6.029,4330,1995,197.064,60.263,13.286
2017-11-27T05:36:56,42.805,6.029,4330,1995,197.013,60.247,13.286
2017-11-27T05:39:56,42.805,6.029,4330,1995,197.001,60.243,13.286
2017-11-27T05:42:56,42.805,6.029,4330,1995,196.915,60.217,13.287
2017-11-27T05:45:56,42.805,6.029,4330,1995,196.952,60.229,13.287
2017-11-27T05:48:56,42.805,6.029,4330,1995,196.925,60.221,13.287
2017-11-27T05:51:56,42.805,6.029,4330,1995,196.863,60.202,13.287
2017-11-27T05:54:56,42.805,6.029,4330,1995,196.786,60.178,13.287
2017-11-27T05:57:56,42.805,6.029,4330,1995,196.812,60.186,13.287
2017-11-27T06:00:56,42.805,6.029,4330,1995,196.717,60.157,13.287
2017-11-27T06:03:56,42.805,6.029,4330,1995,196.709,60.155,13.287
2017-11-27T06:06:56,42.805,6.029,4330,1995,196.689,60.148,13.287
2017-11-27T06:09:56,42.805,6.029,4330,1995,196.623,60.129,13.287
2017-11-27T06:12:56,42.805,6.029,4330,1995,196.649,60.136,13.287
2017-11-27T06:15:56,42.805,6.029,4330,1995,196.705,60.153,13.287
2017-11-27T06:18:56,42.805,6.029,4330,1995,196.570,60.112,13.287
2017-11-27T06:21:56,42.805,6.029,4330,1995,196.641,60.134,13.286
2017-11-27T06:24:56,42.805,6.029,4330,1995,196.615,60.127,13.287
2017-11-27T06:27:56,42.805,6.029,4330,1995,196.565,60.111,13.287
2017-11-27T06:30:56,42.805,6.029,4330,1995,196.605,60.123,13.287
2017-11-27T06:33:56,42.805,6.029,4330,1995,196.601,60.122,13.287
2017-11-27T06:36:56,42.805,6.029,4330,1995,196.607,60.124,13.287
2017-11-27T06:39:56,42.805,6.029,4330,1995,196.609,60.124,13.286
2017-11-27T06:42:56,42.805,6.029,4330,1995,196.636,60.133,13.287
2017-11-27T06:45:56,42.805,6.029,4330,1995,196.625,60.129,13.287
2017-11-27T06:48:56,42.805,6.029,4330,1995,196.581,60.116,13.287
2017-11-27T06:51:56,42.805,6.029,4330,1995,196.449,60.076,13.287
2017-11-27T06:54:56,42.805,6.029,4330,1995,196.549,60.106,13.287
2017-11-27T06:57:56,42.805,6.029,4330,1995,196.481,60.086,13.287
2017-11-27T07:00:56,42.805,6.029,4330,1995,196.465,60.081,13.287
2017-11-27T07:03:56,42.805,6.029,4330,1995,196.460,60.079,13.287
2017-11-27T07:06:56,42.805,6.029,4330,1995,196.503,60.091,13.286
2017-11-27T07:09:56,42.805,6.029,4330,1995,196.395,60.058,13.287
2017-11-27T07:12:56,42.805,6.029,4330,1995,196.421,60.067,13.287
2017-11-27T07:15:56,42.805,6.029,4330,1995,196.389,60.058,13.287
2017-11-27T07:18:56,42.805,6.029,4330,1995,196.350,60.045,13.287
2017-11-27T07:21:56,42.805,6.029,4330,1995,196.299,60.030,13.287
2017-11-27T07:24:56,42.805,6.029,4330,1995,196.258,60.017,13.287
2017-11-27T07:27:56,42.805,6.029,4330,1995,196.270,60.020,13.287
2017-11-27T07:30:56,42.805,6.029,4330,1995,196.160,59.988,13.288
2017-11-27T07:33:56,42.805,6.029,4330,1995,196.167,59.990,13.287
2017-11-27T07:36:56,42.805,6.029,4330,1995,196.130,59.978,13.287
2017-11-27T07:39:56,42.805,6.029,4330,1995,196.115,59.973,13.287
2017-11-27T07:42:56,42.805,6.029,4330,1995,196.129,59.979,13.288
2017-11-27T07:45:56,42.805,6.029,4330,1995,196.107,59.971,13.287
2017-11-27T07:48:56,42.805,6.029,4330,1995,195.959,59.927,13.288
2017-11-27T07:51:56,42.805,6.029,4330,1995,196.003,59.938,13.287
2017-11-27T07:54:56,42.805,6.029,4330,1995,195.858,59.895,13.287
2017-11-27T07:57:56,42.805,6.029,4330,1995,195.812,59.882,13.288
2017-11-27T08:00:56,42.805,6.029,4330,1995,195.825,59.885,13.288
2017-11-27T08:03:56,42.805,6.029,4330,1995,195.805,59.878,13.287
2017-11-27T08:06:56,42.805,6.029,4330,1995,195.690,59.845,13.288
2017-11-27T08:09:56,42.805,6.029,4330,1995,195.611,59.820,13.287
2017-11-27T08:12:56,42.805,6.029,4330,1995,195.626,59.824,13.287
2017-11-27T08:15:56,42.805,6.029,4330,1995,195.602,59.817,13.288
2017-11-27T08:18:56,42.805,6.029,4330,1995,195.549,59.802,13.288
2017-11-27T08:21:56,42.805,6.029,4330,1995,195.548,59.800,13.287
2017-11-27T08:24:56,42.805,6.029,4330,1995,195.603,59.818,13.288
2017-11-27T08:27:56,42.805,6.029,4330,1995,195.461,59.774,13.287
2017-11-27T08:30:56,42.805,6.029,4330,1995,195.519,59.792,13.287
2017-11-27T08:33:56,42.805,6.029,4330,1995,195.402,59.759,13.290
2017-11-27T08:36:56,42.805,6.029,4330,1995,195.329,59.733,13.287
2017-11-27T08:39:56,42.805,6.029,4330,1995,195.397,59.754,13.287
2017-11-27T08:42:56,42.805,6.029,4330,1995,195.493,59.783,13.287
2017-11-27T08:45:56,42.805,6.029,4330,1995,195.475,59.778,13.287
2017-11-27T08:48:56,42.805,6.029,4330,1995,195.529,59.795,13.288
2017-11-27T08:51:56,42.805,6.029,4330,1995,195.360,59.743,13.287
2017-11-27T08:54:56,42.805,6.029,4330,1995,195.368,59.745,13.287
2017-11-27T08:57:56,42.805,6.029,4330,1995,195.467,59.776,13.287
2017-11-27T09:00:56,42.805,6.029,4330,1995,195.511,59.789,13.287
2017-11-27T09:03:56,42.805,6.029,4330,1995,195.623,59.822,13.287
2017-11-27T09:06:56,42.805,6.029,4330,1995,195.745,59.860,13.287
2017-11-27T09:09:56,42.805,6.029,4330,1995,195.706,59.851,13.289
2017-11-27T09:12:56,42.805,6.029,4330,1995,195.647,59.830,13.287
2017-11-27T09:15:56,42.805,6.029,4330,1995,195.575,59.813,13.291
2017-11-27T09:18:56,42.805,6.029,4330,1995,195.663,59.835,13.287
2017-11-27T09:21:56,42.805,6.029,4330,1995,195.611,59.819,13.287
2017-11-27T09:24:56,42.805,6.029,4330,1995,195.548,59.803,13.289
2017-11-27T09:27:56,42.805,6.029,4330,1995,195.313,59.734,13.292
2017-11-27T09:30:56,42.805,6.029,4330,1995,195.158,59.684,13.290
2017-11-27T09:33:56,42.805,6.029,4330,1995,195.161,59.682,13.287
2017-11-27T09:36:56,42.805,6.029,4330,1995,195.360,59.743,13.287
2017-11-27T09:39:56,42.805,6.029,4330,1995,195.281,59.727,13.293
2017-11-27T09:42:56,42.805,6.029,4330,1995,195.381,59.751,13.289
2017-11-27T09:45:56,42.805,6.029,4330,1995,195.233,59.705,13.288
2017-11-27T09:48:56,42.805,6.029,4330,1995,195.193,59.695,13.290
2017-11-27T09:51:56,42.805,6.029,4330,1995,195.393,59.756,13.290
2017-11-27T09:54:56,42.805,6.029,4330,1995,195.187,59.692,13.289
2017-11-27T09:57:56,42.805,6.029,4330,1995,195.181,59.689,13.288
2017-11-27T10:00:56,42.805,6.029,4330,1995,195.230,59.703,13.288
2017-11-27T10:03:56,42.805,6.029,4330,1995,195.248,59.709,13.288
2017-11-27T10:06:56,42.805,6.029,4330,1995,195.136,59.674,13.287
2017-11-27T10:09:56,42.805,6.029,4330,1995,194.998,59.635,13.290
2017-11-27T10:12:56,42.805,6.029,4330,1995,194.861,59.596,13.292
2017-11-27T10:15:56,42.805,6.029,4330,1995,194.998,59.637,13.291
2017-11-27T10:18:56,42.805,6.029,4330,1995,194.847,59.590,13.290
2017-11-27T10:21:56,42.805,6.029,4330,1995,194.979,59.630,13.290
2017-11-27T10:24:56,42.805,6.029,4330,1995,194.774,59.566,13.289
2017-11-27T10:27:56,42.805,6.029,4330,1995,194.582,59.507,13.289
2017-11-27T10:30:56,42.805,6.029,4330,1995,194.554,59.497,13.288
2017-11-27T10:33:56,42.805,6.029,4330,1995,194.726,59.548,13.287
2017-11-27T10:36:56,42.805,6.029,4330,1995,194.912,59.606,13.287
2017-11-27T10:39:56,42.805,6.029,4330,1995,194.845,59.586,13.288
2017-11-27T10:42:56,42.805,6.029,4330,1995,194.858,59.597,13.293
2017-11-27T10:45:56,42.805,6.029,4330,1995,194.827,59.582,13.289
2017-11-27T10:48:56,42.805,6.029,4330,1995,195.198,59.697,13.290
2017-11-27T10:51:56,42.805,6.029,4330,1995,195.166,59.688,13.291
2017-11-27T10:54:56,42.805,6.029,4330,1995,194.887,59.600,13.289
2017-11-27T10:57:56,42.805,6.029,4330,1995,194.898,59.602,13.288
2017-11-27T11:00:56,42.805,6.029,4330,1995,194.869,59.595,13.289
2017-11-27T11:03:56,42.805,6.029,4330,1995,194.744,59.558,13.290
2017-11-27T11:06:56,42.805,6.029,4330,1995,194.594,59.511,13.289
2017-11-27T11:09:56,42.805,6.029,4330,1995,194.524,59.489,13.289
2017-11-27T11:12:56,42.805,6.029,4330,1995,194.382,59.446,13.289
2017-11-27T11:15:56,42.805,6.029,4330,1995,194.449,59.466,13.288
2017-11-27T11:18:56,42.805,6.029,4330,1995,194.291,59.418,13.289
2017-11-27T11:21:56,42.805,6.029,4330,1995,194.262,59.410,13.289
2017-11-27T11:24:56,42.805,6.029,4330,1995,194.287,59.418,13.290
2017-11-27T11:27:56,42.805,6.029,4330,1995,194.291,59.418,13.289
2017-11-27T11:30:56,42.805,6.029,4330,1995,194.314,59.425,13.288
2017-11-27T11:33:56,42.805,6.029,4330,1995,194.248,59.405,13.289
2017-11-27T11:36:56,42.805,6.029,4330,1995,194.238,59.403,13.290
2017-11-27T11:39:56,42.805,6.029,4330,1995,194.161,59.379,13.289
2017-11-27T11:42:56,42.805,6.029,4330,1995,194.144,59.376,13.291
2017-11-27T11:45:56,42.805,6.029,4330,1995,194.028,59.341,13.292
2017-11-27T11:48:56,42.805,6.029,4330,1995,194.077,59.354,13.290
2017-11-27T11:51:56,42.805,6.029,4330,1995,194.149,59.375,13.289
2017-11-27T11:54:56,42.805,6.029,4330,1995,194.284,59.417,13.290
2017-11-27T11:57:56,42.805,6.029,4330,1995,194.187,59.391,13.293
2017-11-27T12:00:56,42.805,6.029,4330,1995,194.150,59.376,13.290
2017-11-27T12:03:56,42.805,6.029,4330,1995,194.144,59.375,13.291
2017-11-27T12:06:56,42.805,6.029,4330,1995,194.057,59.350,13.291
2017-11-27T12:09:56,42.805,6.029,4330,1995,193.770,59.263,13.292
2017-11-27T12:12:56,42.805,6.029,4330,1995,193.446,59.166,13.294
2017-11-27T12:15:56,42.805,6.029,4330,1995,193.199,59.090,13.294
2017-11-27T12:18:56,42.805,6.029,4330,1995,192.962,59.018,13.294
2017-11-27T12:21:56,42.805,6.029,4330,1995,192.643,58.919,13.293
2017-11-27T12:24:56,42.805,6.029,4330,1995,192.441,58.857,13.293
2017-11-27T12:27:56,42.805,6.029,4330,1995,192.176,58.776,13.292
2017-11-27T12:30:56,42.805,6.029,4330,1995,191.881,58.682,13.290
2017-11-27T12:33:56,42.805,6.029,4330,1995,191.895,58.689,13.292
2017-11-27T12:36:56,42.805,6.029,4330,1995,191.756,58.649,13.294
2017-11-27T12:39:56,42.805,6.029,4330,1995,191.517,58.577,13.294
2017-11-27T12:42:56,42.805,6.029,4330,1995,191.499,58.566,13.291
2017-11-27T12:45:56,42.805,6.029,4330,1995,192.019,58.725,13.290
2017-11-27T12:48:56,42.805,6.029,4330,1995,192.393,58.838,13.289
2017-11-27T12:51:56,42.805,6.029,4330,1995,192.464,58.859,13.289
2017-11-27T12:54:56,42.805,6.029,4330,1995,192.420,58.846,13.289
2017-11-27T12:57:56,42.805,6.029,4330,1995,192.426,58.846,13.288
2017-11-27T13:00:56,42.805,6.029,4330,1995,193.143,59.065,13.287
2017-11-27T13:03:56,42.805,6.029,4330,1995,193.230,59.091,13.287
2017-11-27T13:06:56,42.805,6.029,4330,1995,193.399,59.142,13.287
2017-11-27T13:09:56,42.805,6.029,4330,1995,193.531,59.183,13.287
2017-11-27T13:12:56,42.805,6.029,4330,1995,193.616,59.209,13.287
2017-11-27T13:15:56,42.805,6.029,4330,1995,193.593,59.202,13.287
2017-11-27T13:18:56,42.805,6.029,4330,1995,193.550,59.188,13.287
2017-11-27T13:21:56,42.805,6.029,4330,1995,193.659,59.222,13.287
2017-11-27T13:24:56,42.805,6.029,4330,1995,193.958,59.313,13.286
2017-11-27T13:27:56,42.805,6.029,4330,1995,194.155,59.373,13.286
2017-11-27T13:30:56,42.805,6.029,4330,1995,194.501,59.479,13.286
2017-11-27T13:33:56,42.805,6.029,4330,1995,194.676,59.532,13.286
2017-11-27T13:36:56,42.805,6.029,4330,1995,194.883,59.596,13.286
2017-11-27T13:39:56,42.805,6.029,4330,1995,194.966,59.621,13.286
2017-11-27T13:42:56,42.805,6.029,4330,1995,194.947,59.615,13.286
2017-11-27T13:45:56,42.805,6.029,4330,1995,194.981,59.626,13.286
2017-11-27T13:48:56,42.805,6.029,4330,1995,195.181,59.687,13.286
2017-11-27T13:51:56,42.805,6.029,4330,1995,195.179,59.686,13.286
2017-11-27T13:54:56,42.805,6.029,4330,1995,195.105,59.663,13.286
2017-11-27T13:57:56,42.805,6.029,4330,1995,195.183,59.687,13.286
2017-11-27T14:00:56,42.805,6.029,4330,1995,195.179,59.686,13.286
2017-11-27T14:03:56,42.805,6.029,4330,1995,195.141,59.675,13.286
2017-11-27T14:06:56,42.805,6.029,4330,1995,195.182,59.687,13.286
2017-11-27T14:09:56,42.805,6.029,4330,1995,195.364,59.742,13.286
2017-11-27T14:12:56,42.805,6.029,4330,1995,195.485,59.779,13.286
2017-11-27T14:15:56,42.805,6.029,4330,1995,195.498,59.783,13.286
2017-11-27T14:18:56,42.805,6.029,4330,1995,195.384,59.748,13.286
2017-11-27T14:21:56,42.805,6.029,4330,1995,195.394,59.751,13.286
2017-11-27T14:24:56,42.805,6.029,4330,1995,195.552,59.800,13.286
2017-11-27T14:27:56,42.805,6.029,4330,1995,195.756,59.862,13.286
2017-11-27T14:30:56,42.805,6.029,4330,1995,195.711,59.848,13.286
2017-11-27T14:33:56,42.805,6.029,4330,1995,195.644,59.828,13.286
2017-11-27T14:36:56,42.805,6.029,4330,1995,195.717,59.850,13.286
2017-11-27T14:39:56,42.805,6.029,4330,1995,195.773,59.867,13.286
2017-11-27T14:42:56,42.805,6.029,4330,1995,195.840,59.888,13.286
2017-11-27T14:45:56,42.805,6.029,4330,1995,195.839,59.888,13.286
2017-11-27T14:48:56,42.805,6.029,4330,1995,195.843,59.889,13.286
2017-11-27T14:51:56,42.805,6.029,4330,1995,195.754,59.861,13.286
2017-11-27T14:54:56,42.805,6.029,4330,1995,195.749,59.860,13.286
2017-11-27T14:57:56,42.805,6.029,4330,1995,195.794,59.874,13.286
2017-11-27T15:00:56,42.805,6.029,4330,1995,195.880,59.900,13.286
2017-11-27T15:03:56,42.805,6.029,4330,1995,195.939,59.918,13.286
2017-11-27T15:06:56,42.805,6.029,4330,1995,195.819,59.881,13.286
2017-11-27T15:09:56,42.805,6.029,4330,1995,195.964,59.926,13.286
2017-11-27T15:12:56,42.805,6.029,4330,1995,196.043,59.950,13.286
2017-11-27T15:15:56,42.805,6.029,4330,1995,195.870,59.897,13.286
2017-11-27T15:18:56,42.805,6.029,4330,1995,195.894,59.904,13.286
2017-11-27T15:21:56,42.805,6.029,4330,1995,195.921,59.913,13.286
2017-11-27T15:24:56,42.805,6.029,4330,1995,195.999,59.936,13.286
2017-11-27T15:27:56,42.805,6.029,4330,1995,196.016,59.942,13.286
2017-11-27T15:30:56,42.805,6.029,4330,1995,196.014,59.941,13.286
2017-11-27T15:33:56,42.805,6.029,4330,1995,196.014,59.941,13.286
2017-11-27T15:36:56,42.805,6.029,4330,1995,196.003,59.937,13.286
2017-11-27T15:39:56,42.805,6.029,4330,1995,196.195,59.996,13.286
2017-11-27T15:42:56,42.805,6.029,4330,1995,196.085,59.963,13.286
2017-11-27T15:45:56,42.805,6.029,4330,1995,196.026,59.945,13.286
2017-11-27T15:48:56,42.805,6.029,4330,1995,196.103,59.968,13.286
2017-11-27T15:51:56,42.805,6.029,4330,1995,196.054,59.953,13.286
2017-11-27T15:54:56,42.805,6.029,4330,1995,196.059,59.955,13.286
2017-11-27T15:57:56,42.805,6.029,4330,1995,196.034,59.947,13.286
2017-11-27T16:00:56,42.805,6.029,4330,1995,196.117,59.972,13.286
2017-11-27T16:03:56,42.805,6.029,4330,1995,196.011,59.940,13.286
2017-11-27T16:06:56,42.805,6.029,4330,1995,195.925,59.914,13.286
2017-11-27T16:09:56,42.805,6.029,4330,1995,196.021,59.943,13.286
2017-11-27T16:12:56,42.805,6.029,4330,1995,196.127,59.975,13.286
2017-11-27T16:15:56,42.805,6.029,4330,1995,196.160,59.985,13.286
2017-11-27T16:18:56,42.805,6.029,4330,1995,196.192,59.995,13.286
2017-11-27T16:21:56,42.805,6.029,4330,1995,196.256,60.015,13.286
2017-11-27T16:24:56,42.805,6.029,4330,1995,196.193,59.995,13.286
2017-11-27T16:27:56,42.805,6.029,4330,1995,196.129,59.976,13.286
2017-11-27T16:30:56,42.805,6.029,4330,1995,196.154,59.984,13.286
2017-11-27T16:33:56,42.805,6.029,4330,1995,196.122,59.974,13.286
2017-11-27T16:36:56,42.805,6.029,4330,1995,196.206,60.000,13.286
2017-11-27T16:39:56,42.805,6.029,4330,1995,196.276,60.021,13.286
2017-11-27T16:42:56,42.805,6.029,4330,1995,196.311,60.032,13.286
2017-11-27T16:45:56,42.805,6.029,4330,1995,196.318,60.034,13.286
2017-11-27T16:48:56,42.805,6.029,4330,1995,196.319,60.034,13.286
2017-11-27T16:51:56,42.805,6.029,4330,1995,196.436,60.070,13.286
2017-11-27T16:54:56,42.805,6.029,4330,1995,196.502,60.090,13.286
2017-11-27T16:57:56,42.805,6.029,4330,1995,196.478,60.083,13.286
2017-11-27T17:00:56,42.805,6.029,4330,1995,196.230,60.007,13.286
2017-11-27T17:03:56,42.805,6.029,4330,1995,196.189,59.994,13.286
2017-11-27T17:06:56,42.805,6.029,4330,1995,196.153,59.983,13.286
2017-11-27T17:09:56,42.805,6.029,4330,1995,196.241,60.010,13.286
2017-11-27T17:12:56,42.805,6.029,4330,1995,196.396,60.058,13.286
2017-11-27T17:15:56,42.805,6.029,4330,1995,196.158,59.985,13.286
2017-11-27T17:18:56,42.805,6.029,4330,1995,196.183,59.992,13.286
2017-11-27T17:21:56,42.805,6.029,4330,1995,196.338,60.040,13.286
2017-11-27T17:24:56,42.805,6.029,4330,1995,196.293,60.026,13.286
2017-11-27T17:27:56,42.805,6.029,4330,1995,196.310,60.031,13.286
2017-11-27T17:30:56,42.805,6.029,4330,1995,196.245,60.011,13.286
2017-11-27T17:33:56,42.805,6.029,4330,1995,196.283,60.023,13.286
2017-11-27T17:36:56,42.805,6.029,4330,1995,196.281,60.022,13.286
2017-11-27T17:39:56,42.805,6.029,4330,1995,196.377,60.052,13.286
2017-11-27T17:42:56,42.805,6.029,4330,1995,196.256,60.015,13.286
2017-11-27T17:45:56,42.805,6.029,4330,1995,196.335,60.039,13.286
2017-11-27T17:48:56,42.805,6.029,4330,1995,196.317,60.033,13.286
2017-11-27T17:51:56,42.805,6.029,4330,1995,196.432,60.068,13.286
2017-11-27T17:54:56,42.805,6.029,4330,1995,196.456,60.076,13.286
2017-11-27T17:57:56,42.805,6.029,4330,1995,196.446,60.073,13.286
2017-11-27T18:00:56,42.805,6.029,4330,1995,196.455,60.075,13.286
2017-11-27T18:03:56,42.805,6.029,4330,1995,196.397,60.058,13.286
2017-11-27T18:06:56,42.805,6.029,4330,1995,196.368,60.049,13.286